Regional Weather Roundup
Issued by NWS State College, PA

Home | Current Version | Previous Version | Graphics & Text | Print | Product List | Glossary On
Versions: 1 2 3 4 5 6 7 8 9 10 11 12 13 14 15 16 17 18 19 20 21 22 23 24 25 26 27 28 29 30 31 32 33 34 35 36 37 38 39 40 41 42 43 44 45 46 47 48 49 50
000
ASUS41 KCTP 222010
RWRCTP

REGIONAL WEATHER ROUNDUP
NATIONAL WEATHER SERVICE STATE COLLEGE PA
400 PM EDT WED MAR 22 2017

Note: "fair" indicates few or no clouds below 12,000 feet with no
significant weather and/or obstructions to visibility.

* = STATION THAT DOES NOT REPORT PRECIPITATION /E.G. RAIN...SNOW...ETC/
    THUNDER OR FOG.

PAZ002>004-007>009-013>016-020>023-029>032-222100-
WESTERN PENNSYLVANIA

CITY           SKY/WX    TMP DP  RH WIND       PRES   REMARKS
ERIE           SUNNY     28   9  44 NE7       30.52S
MEADVILLE      SUNNY     29  10  45 N12G17    30.44R
FRANKLIN*      SUNNY     28   7  40 N9G16     30.42R
NEW CASTLE     FAIR      34   8  33 N9        30.45S
BEAVER COUNTY  SUNNY     34   7  32 N10G16    30.42F
BUTLER*        SUNNY     36   7  30 NW8       30.41F
PITTSBURGH INT SUNNY     37   6  27 N13G23    30.40F
PITTSBURGH     SUNNY     38   4  24 N10       30.38F
INDIANA*       SUNNY     36   3  25 N14G20    30.38S
LATROBE        SUNNY     36   5  27 N17G29    30.38F
WASHINGTON CO* SUNNY     37   9  30 NW14      30.42S
$$

PAZ004>006-010>012-017>019-024>028-033>037-041-042-045-046-049>053-222100-
CENTRAL PENNSYLVANIA

CITY           SKY/WX    TMP DP  RH WIND       PRES   REMARKS
BRADFORD       SUNNY     25   4  40 NW20G28   30.33R WCI  11
DUBOIS         SUNNY     30   2  30 NW17G24   30.33S
CLEARFIELD       N/A    N/A N/A N/A MISG      30.33R
JOHNSTOWN      SUNNY     32   5  32 NW16G28   30.27S
ALTOONA        SUNNY     38   6  26 NW20G30   30.30S
STATE COLLEGE  SUNNY     34   1  25 N12G22    30.30S
WILLIAMSPORT   SUNNY     35  -3  19 NW20G30   30.33R
SELINSGROVE    SUNNY     37   5  26 NW20G31   30.32R
FT INDIANTOWN  SUNNY     37   1  22 N16G25    30.28R
CAPITAL CITY   SUNNY     42  -1  16 N16G24    30.29R
HARRISBURG     SUNNY     42   1  18 N17G28    30.29R
YORK           SUNNY     41   6  23 NW17G31   30.28R
$$

PAZ038>040-043-044-047-048-054-055-060>062-067>071-222100-
EASTERN PENNSYLVANIA

CITY           SKY/WX    TMP DP  RH WIND       PRES   REMARKS
SCRANTON       SUNNY     26   5  40 N24G33    30.29R WCI  11
MOUNT POCONO   SUNNY     21   1  41 N23G37    30.16R WCI   5
ALLENTOWN      SUNNY     35   2  24 NW23G37   30.28R
QUAKERTOWN*    CLEAR     32   5  32 N20G28    30.27R
READING        SUNNY     37   5  26 NW21G33   30.29R
LANCASTER      SUNNY     40   7  25 NW22G31   30.28R
COATESVILLE    CLEAR     36   1  23 NW24G33   30.27R
POTTSTOWN      SUNNY     36   3  25 NW21G32   30.28R
BLUE BELL      SUNNY     34  10  37 NW12G29   30.26R
DOYLESTOWN     SUNNY     28   4  35 NW20G30   30.24R WCI  15
WILLOW GROVE   NOT AVBL
NORTH PHILA    SUNNY     38   5  25 NW18G36   30.28R
PHILADELPHIA   SUNNY     40   7  25 N21       30.27R
$$



USA.gov is the U.S. government's official web portal to all federal, state and local government web resources and services.